| time (UTC) | temp F | wind direction | speed MPH | gust MPH | rain 1hr in | rain 24hr in | rain mn in | humidity % | barometer mb |
| 20260504231018 | 57 | 0.0 | 0.0 | 0.00 | 0.00 | 0.00 | 58 | 1017.7 | |
| 20260504230017 | 57 | 0.0 | 0.0 | 0.00 | 0.00 | 0.00 | 58 | 1017.6 | |
| 20260504225018 | 57 | 0.0 | 0.0 | 0.00 | 0.00 | 0.00 | 58 | 1017.7 | |
| 20260504224019 | 57 | 0.0 | 0.0 | 0.00 | 0.00 | 0.00 | 57 | 1017.7 | |
| 20260504223017 | 57 | 0.0 | 0.0 | 0.00 | 0.00 | 0.00 | 58 | 1017.6 | |
| 20260504222019 | 57 | 0.0 | 0.0 | 0.00 | 0.00 | 0.00 | 58 | 1017.7 | |
| 20260504221020 | 57 | 0.0 | 0.0 | 0.00 | 0.00 | 0.00 | 57 | 1017.8 | |
| 20260504220017 | 58 | 0.0 | 0.0 | 0.00 | 0.00 | 0.00 | 57 | 1017.9 | |
| 20260504215019 | 58 | 0.0 | 0.0 | 0.00 | 0.00 | 0.00 | 57 | 1017.9 | |
| 20260504214018 | 58 | 0.0 | 0.0 | 0.00 | 0.00 | 0.00 | 57 | 1017.9 | |
| 20260504213019 | 58 | 0.0 | 0.0 | 0.00 | 0.00 | 0.00 | 57 | 1017.9 | |
| 20260504212017 | 58 | 0.0 | 0.0 | 0.00 | 0.00 | 0.00 | 56 | 1017.9 | |
| 20260504211018 | 58 | 0.0 | 0.0 | 0.00 | 0.00 | 0.00 | 56 | 1017.8 | |
| 20260504210019 | 59 | 0.0 | 0.0 | 0.00 | 0.00 | 0.00 | 56 | 1017.8 | |
| 20260504205018 | 59 | 0.0 | 0.0 | 0.00 | 0.00 | 0.00 | 56 | 1017.8 | |
| 20260504204018 | 59 | 0.0 | 0.0 | 0.00 | 0.00 | 0.00 | 56 | 1017.7 | |
| 20260504203040 | 59 | 0.0 | 0.0 | 0.00 | 0.00 | 0.00 | 54 | 1017.6 | |
| 20260504202020 | 60 | 0.0 | 0.0 | 0.00 | 0.00 | 0.00 | 54 | 1017.7 | |
| 20260504201020 | 60 | 0.0 | 0.0 | 0.00 | 0.00 | 0.00 | 53 | 1017.6 | |
| 20260504200020 | 60 | 0.0 | 0.0 | 0.00 | 0.00 | 0.00 | 52 | 1017.5 | |
| 20260504195020 | 61 | 0.0 | 0.0 | 0.00 | 0.00 | 0.00 | 52 | 1017.5 | |
| 20260504194041 | 61 | 0.0 | 0.0 | 0.00 | 0.00 | 0.00 | 51 | 1017.5 | |
| 20260504193019 | 62 | 0.0 | 0.0 | 0.00 | 0.00 | 0.00 | 51 | 1017.4 | |
| 20260504192020 | 62 | 0.0 | 0.0 | 0.00 | 0.00 | 0.00 | 51 | 1017.4 | |
| 20260504191039 | 63 | 0.0 | 0.0 | 0.00 | 0.00 | 0.00 | 50 | 1017.4 | |
| 20260504190020 | 63 | 0.0 | 0.0 | 0.00 | 0.00 | 0.00 | 49 | 1017.4 | |
| 20260504185040 | 63 | 0.0 | 0.0 | 0.00 | 0.00 | 0.00 | 48 | 1017.4 | |
| 20260504184103 | 64 | 0.0 | 0.0 | 0.00 | 0.00 | 0.00 | 48 | 1017.3 | |
| 20260504183020 | 64 | 0.0 | 0.0 | 0.00 | 0.00 | 0.00 | 48 | 1017.1 | |
| 20260504182018 | 65 | 0.0 | 0.0 | 0.00 | 0.00 | 0.00 | 48 | 1017.2 | |
| 20260504181020 | 66 | 0.0 | 0.0 | 0.00 | 0.00 | 0.00 | 48 | 1017.1 | |
| 20260504180040 | 66 | 0.0 | 0.0 | 0.00 | 0.00 | 0.00 | 48 | 1017.1 | |
| 20260504175018 | 67 | 0.0 | 0.0 | 0.00 | 0.00 | 0.00 | 47 | 1017.1 | |
| 20260504174041 | 67 | 0.0 | 0.0 | 0.00 | 0.00 | 0.00 | 46 | 1017.2 | |
| 20260504173018 | 68 | 0.0 | 0.0 | 0.00 | 0.00 | 0.00 | 45 | 1017.0 | |
| 20260504172020 | 68 | 0.0 | 0.0 | 0.00 | 0.00 | 0.00 | 43 | 1016.9 | |
| 20260504171041 | 68 | 0.0 | 0.0 | 0.00 | 0.00 | 0.00 | 41 | 1017.0 | |
| 20260504151019 | 67 | 203 | 1.0 | 5.0 | 0.00 | 0.00 | 0.00 | 52 | 1017.4 |
| 20260504141018 | 68 | 203 | 1.0 | 6.0 | 0.00 | 0.00 | 0.00 | 39 | 1017.6 |
| 20260504081020 | 62 | 45 | 1.0 | 5.0 | 0.00 | 0.00 | 0.00 | 42 | 1020.7 |
| 20260504050019 | 55 | 45 | 1.0 | 7.0 | 0.00 | 0.02 | 0.00 | 50 | 1020.5 |
| 20260504045019 | 54 | 0.0 | 0.0 | 0.00 | 0.02 | 0.00 | 48 | 1020.4 | |
| 20260504044020 | 54 | 45 | 1.0 | 6.0 | 0.00 | 0.02 | 0.00 | 49 | 1020.3 |
| 20260504043019 | 53 | 45 | 1.0 | 5.0 | 0.00 | 0.02 | 0.00 | 51 | 1020.4 |
| 20260504042018 | 52 | 45 | 3.0 | 7.0 | 0.00 | 0.02 | 0.00 | 52 | 1020.4 |
| 20260504041018 | 52 | 45 | 3.0 | 9.0 | 0.00 | 0.02 | 0.00 | 54 | 1020.3 |
| 20260504040020 | 51 | 45 | 4.0 | 7.0 | 0.00 | 0.02 | 0.00 | 56 | 1020.3 |
| 20260504035103 | 51 | 68 | 2.0 | 7.0 | 0.00 | 0.02 | 0.00 | 59 | 1020.1 |
| 20260504034019 | 50 | 68 | 2.0 | 9.0 | 0.00 | 0.02 | 0.00 | 60 | 1020.0 |
| 20260504033020 | 50 | 68 | 3.0 | 8.0 | 0.00 | 0.02 | 0.00 | 63 | 1020.0 |
| 20260504032040 | 50 | 0.0 | 0.0 | 0.00 | 0.02 | 0.00 | 65 | 1019.9 | |
| 20260504031018 | 50 | 0.0 | 0.0 | 0.00 | 0.02 | 0.00 | 65 | 1020.0 | |
| 20260504030020 | 50 | 0.0 | 0.0 | 0.00 | 0.02 | 0.00 | 66 | 1020.0 | |
| 20260504025020 | 50 | 0.0 | 0.0 | 0.00 | 0.02 | 0.00 | 66 | 1020.0 | |
| 20260504024018 | 50 | 0.0 | 0.0 | 0.00 | 0.02 | 0.00 | 66 | 1020.2 | |
| 20260504023041 | 49 | 0.0 | 0.0 | 0.00 | 0.02 | 0.00 | 66 | 1020.2 | |
| 20260504022020 | 49 | 0.0 | 0.0 | 0.00 | 0.02 | 0.00 | 65 | 1020.1 | |
| 20260504021020 | 49 | 0.0 | 0.0 | 0.00 | 0.02 | 0.00 | 64 | 1020.0 | |
| 20260504020019 | 50 | 0.0 | 0.0 | 0.00 | 0.02 | 0.00 | 64 | 1020.0 | |
| 20260504015018 | 50 | 0.0 | 0.0 | 0.00 | 0.02 | 0.00 | 64 | 1020.1 | |
| 20260504014018 | 50 | 0.0 | 0.0 | 0.00 | 0.02 | 0.00 | 66 | 1019.9 | |
| 20260504013018 | 49 | 0.0 | 0.0 | 0.00 | 0.02 | 0.00 | 65 | 1019.9 | |
| 20260504012018 | 50 | 0.0 | 0.0 | 0.00 | 0.02 | 0.00 | 64 | 1019.8 | |
| 20260504011019 | 0 | 0.0 | 0.0 | 0.00 | 0.02 | 0.00 | |||
| 20260504010053 | 51 | 0.0 | 0.0 | 0.00 | 0.02 | 0.00 | 59 | 1019.4 | |
| 20260504005550 | 51 | 0 | 1.0 | 1.0 | 0.00 | 0.02 | 0.00 | 59 | 1019.6 |
| 20260504005019 | 51 | 0 | 1.0 | 2.0 | 0.00 | 0.02 | 0.00 | 59 | 1019.7 |
| 20260504004019 | 51 | 0 | 1.0 | 3.0 | 0.00 | 0.02 | 0.00 | 58 | 1019.6 |
| 20260504003018 | 52 | 0.0 | 2.0 | 0.00 | 0.02 | 0.00 | 57 | 1019.3 | |
| 20260504002041 | 52 | 0.0 | 2.0 | 0.00 | 0.02 | 0.00 | 57 | 1019.5 | |
| 20260504001017 | 52 | 0 | 1.0 | 3.0 | 0.00 | 0.02 | 0.00 | 56 | 1019.5 |
| 20260504000019 | 53 | 0.0 | 1.0 | 0.00 | 0.02 | 0.00 | 55 | 1019.6 | |
| 20260503235019 | 53 | 0.0 | 1.0 | 0.00 | 0.02 | 0.00 | 54 | 1019.5 | |
| 20260503234019 | 54 | 0.0 | 0.0 | 0.00 | 0.02 | 0.00 | 53 | 1019.5 | |
| 20260503233019 | 54 | 0.0 | 1.0 | 0.00 | 0.02 | 0.00 | 53 | 1019.7 | |
| 20260503232018 | 54 | 0.0 | 1.0 | 0.00 | 0.02 | 0.00 | 52 | 1019.7 |